Powrót do katalogu

FENGYUN 1C DEB

AktywnySSO
NORAD 30937·DEBRIS·🇨🇳 China

Wystrzelony May 10, 1999 z Taiyuan Satellite Launch Center

Loading…

Następne Przeloty (najbliższe 24 godziny)

TLE

ŚwieżeSource: Space-Track

Epoka: Sep 14, 2026, 10:36 UTC

1 30937U 99025BAB 26257.44175147  .00000210  00000-0  18183-3 0  9999
2 30937  99.0506 310.3882 0075323  18.8806 353.9507 13.95651819995620

Śledź FENGYUN 1C DEB w czasie rzeczywistym z AllMySat

Download on the App Store